Location: Dallas
(32.7833°N, 96.8000°W)
Time: 00:44:39
(UTC-06:00)

Envisat - Pass Details

Date: 01 February 2021
Orbit: 764 x 766 km, 98.1° (Epoch: 06 March)

Event Time Altitude Azimuth Distance (km) Brightness Sun altitude
Rises 18:48:25 0° 215° (SW) 3,218 7.0 -10.5°
Reaches altitude 10° 18:52:17 10° 245° (WSW) 2,298 6.9 -11.3°
Maximum altitude 18:54:14 12° 268° (W) 2,154 6.7 -11.7°
Drops below altitude 10° 18:56:11 10° 291° (WNW) 2,303 6.4 -12.1°
Sets 19:00:05 0° 321° (NW) 3,235 6.6 -12.9°
